TimeCST,TemperatureF,Dew PointF,Humidity,Sea Level PressureIn,VisibilityMPH,Wind Direction,Wind SpeedMPH,Gust SpeedMPH,PrecipitationIn,Events,Conditions,WindDirDegrees,DateUTC
12:00 AM,66,64,91,29.82,12,ENE,4.6,,,,Mostly Cloudy,60,2013-10-12 06:00:00
12:00 AM,66.2,64.4,94,29.98,-9999.0,ENE,4.6,-,N/A,,Clear,60,2013-10-12 06:00:00
1:00 AM,66.2,62.6,88,29.95,-9999.0,ENE,5.8,-,N/A,,Clear,60,2013-10-12 07:00:00
2:00 AM,66.2,60.8,83,29.95,-9999.0,NNE,8.1,-,N/A,,Clear,20,2013-10-12 08:00:00
3:00 AM,67,59,69,29.78,12,ENE,4.6,,,,,70,2013-10-12 09:00:00
3:00 AM,68.0,59.0,73,29.94,-9999.0,ENE,4.6,-,N/A,,Clear,70,2013-10-12 09:00:00
4:00 AM,66.2,59.0,78,29.94,-9999.0,NNE,5.8,-,N/A,,Clear,20,2013-10-12 10:00:00
5:00 AM,66.2,59.0,78,29.98,-9999.0,NE,6.9,-,N/A,,Clear,50,2013-10-12 11:00:00
6:00 AM,68,59,66,29.83,12,ENE,3.5,,,,Clear,60,2013-10-12 12:00:00
6:00 AM,68.0,59.0,73,29.98,-9999.0,ENE,3.5,-,N/A,,Clear,60,2013-10-12 12:00:00
7:00 AM,71.6,60.8,69,30.00,-9999.0,NNE,9.2,-,N/A,,Clear,30,2013-10-12 13:00:00
8:00 AM,78.8,60.8,54,30.04,-9999.0,NNE,3.5,-,N/A,,Clear,20,2013-10-12 14:00:00
9:00 AM,80,61,42,29.90,12,ESE,5.8,,,,Scattered Clouds,110,2013-10-12 15:00:00
9:00 AM,80.6,60.8,51,30.02,6.2,ESE,5.8,-,N/A,,Scattered Clouds,110,2013-10-12 15:00:00
10:00 AM,77.0,66.2,69,30.03,6.2,South,5.8,-,N/A,,Scattered Clouds,170,2013-10-12 16:00:00
11:00 AM,80.6,68.0,65,30.01,6.2,SW,9.2,-,N/A,,Scattered Clouds,230,2013-10-12 17:00:00
12:00 PM,78,68,63,29.83,12,SW,11.5,,,,Mostly Cloudy,230,2013-10-12 18:00:00
12:00 PM,78.8,68.0,69,29.99,6.2,SW,11.5,-,N/A,,Scattered Clouds,230,2013-10-12 18:00:00
12:21 PM,75.2,66.2,73,29.97,6.2,WSW,11.5,-,N/A,Rain,Light Rain,250,2013-10-12 18:21:00
1:00 PM,71.6,69.8,94,29.97,5.0,West,6.9,-,N/A,Rain,Light Rain,270,2013-10-12 19:00:00
2:00 PM,71.6,69.8,94,29.93,5.0,WSW,6.9,-,N/A,Rain,Rain,240,2013-10-12 20:00:00
3:00 PM,70,69,94,29.84,5,West,6.9,,,Rain,Light Rain,280,2013-10-12 21:00:00
3:00 PM,69.8,68.0,94,29.93,5.0,West,6.9,-,N/A,Rain,Light Rain,280,2013-10-12 21:00:00
4:00 PM,71.6,68.0,88,29.96,5.0,NW,3.5,-,N/A,Fog,Fog,310,2013-10-12 22:00:00
5:00 PM,69.8,68.0,94,29.97,6.2,NW,3.5,-,N/A,,Mostly Cloudy,310,2013-10-12 23:00:00
6:00 PM,69,67,93,29.86,9,North,3.5,,,Rain,Light Rain,350,2013-10-13 00:00:00
6:00 PM,69.8,68.0,94,30.00,6.2,North,3.5,-,N/A,Rain,Light Rain,350,2013-10-13 00:00:00
7:00 PM,68.0,66.2,94,30.01,6.2,Calm,Calm,-,N/A,Rain,Light Rain,0,2013-10-13 01:00:00
8:00 PM,69.8,66.2,88,30.02,-9999.0,NE,3.5,-,N/A,,Clear,40,2013-10-13 02:00:00
9:00 PM,68,64,81,29.85,12,East,6.9,,,,Clear,90,2013-10-13 03:00:00
9:00 PM,68.0,64.4,88,30.01,-9999.0,East,6.9,-,N/A,,Clear,90,2013-10-13 03:00:00
10:00 PM,69.8,62.6,78,30.03,-9999.0,NNE,9.2,-,N/A,,Clear,20,2013-10-13 04:00:00
11:00 PM,68.0,62.6,83,30.01,-9999.0,NNE,6.9,-,N/A,,Clear,30,2013-10-13 05:00:00